Probability
19 21 22 22 21 21 21 20 18 14 11 11 12 11 8 7 6 5 5 4 4 4 4 4 4 4 5 4 2 0 0 0 0 0 0 0 0 0 0 0 0 0 0
24 23 22 21 19 19 20 21 19 15 13 13 13 11 9 7 7 7 6 5 4 5 5 4 4 4 4 3 2 1 1 0 0 0 0 0 0 0 0 0 0 0 0
25 24 22 20 18 17 19 21 20 17 15 15 15 12 9 8 8 8 7 6 7 7 7 6 5 5 4 3 3 3 2 2 1 1 0 0 0 0 0 0 0 0 0
22 22 22 21 19 18 19 20 19 18 17 16 15 13 10 8 8 8 8 7 8 8 8 8 7 6 4 3 2 3 4 3 2 1 0 0 0 0 0 0 0 0 0
17 18 18 19 19 19 19 20 18 17 17 16 15 13 10 9 8 8 9 9 7 6 6 7 7 5 3 1 1 1 2 2 2 1 1 0 0 0 0 0 0 1 1
15 14 14 16 18 18 18 19 18 16 15 14 14 12 11 10 9 8 8 9 7 5 4 6 6 4 2 1 1 1 1 1 2 2 1 0 0 0 0 0 2 3 3
16 15 15 17 18 18 18 19 18 15 14 13 13 11 11 10 9 7 7 7 7 5 5 5 5 4 3 3 3 3 1 1 1 2 2 1 0 1 1 1 4 5 4
19 18 18 19 20 20 19 18 17 15 13 13 12 11 12 12 10 7 5 5 6 4 3 3 4 4 4 4 5 4 3 2 1 1 1 1 1 1 1 2 4 4 3
21 20 19 19 20 19 18 16 15 14 13 11 11 12 13 15 13 8 4 3 4 3 2 2 3 4 4 3 4 4 3 3 2 1 1 1 0 1 1 1 1 1 1
19 20 18 18 18 18 16 14 13 13 11 10 11 11 13 16 14 8 4 3 4 3 2 2 3 3 2 2 2 3 3 3 3 2 1 1 0 0 0 0 0 1 2
16 17 17 17 17 17 16 14 13 12 11 11 12 12 12 14 13 9 4 3 5 5 5 4 3 3 1 0 1 1 2 2 2 2 2 2 1 1 0 0 1 3 4
16 16 17 17 16 16 16 16 14 12 12 12 13 13 12 11 11 9 4 2 4 6 6 4 3 2 1 0 0 0 1 1 1 1 2 3 3 2 1 1 2 5 7
17 17 16 16 16 16 17 18 16 14 14 14 14 13 11 10 9 8 5 2 2 4 4 4 3 2 1 0 1 1 1 0 0 0 1 2 3 3 2 2 4 7 7
18 18 17 17 16 16 17 19 19 17 17 17 16 13 11 10 9 8 6 3 2 2 2 2 3 3 1 1 2 2 2 1 0 0 0 1 1 3 3 3 4 6 5
15 15 16 16 16 16 16 17 18 16 15 15 13 12 11 10 8 6 4 3 2 2 1 2 3 3 3 3 3 3 3 1 1 0 0 0 1 3 3 3 5 4 3
11 12 12 13 13 14 14 13 11 10 8 8 7 7 8 7 5 3 2 2 2 1 1 2 3 3 3 3 3 3 3 3 2 1 1 1 2 3 4 5 5 5 5
10 10 10 10 11 11 10 9 7 5 4 2 2 2 3 3 2 0 0 1 1 0 1 1 2 2 2 2 2 2 2 2 2 2 2 2 3 4 5 6 5 5 5
10 10 9 9 9 9 8 7 6 6 5 4 2 0 0 0 0 0 0 0 0 0 0 0 1 1 1 1 1 1 1 1 2 1 2 3 4 5 6 5 4 4 4
10 9 9 7 7 6 6 6 6 7 7 6 4 2 0 0 0 0 0 0 0 0 0 0 0 0 0 0 0 0 1 2 2 2 2 3 4 5 6 5 4 4 4
9 8 7 5 4 4 4 5 6 7 7 6 5 3 1 0 0 0 0 0 0 0 0 0 0 0 0 0 0 1 2 3 3 3 3 4 4 4 5 5 5 5 6
8 7 5 4 3 3 3 4 5 6 6 5 4 3 1 0 0 0 0 0 0 0 0 0 0 1 1 2 2 2 3 4 4 5 5 5 4 4 4 4 4 5 6
8 7 4 3 3 3 3 3 4 4 4 4 3 1 0 0 0 0 0 0 0 0 0 1 1 3 4 5 5 4 3 4 4 5 5 5 4 3 3 4 4 4 4
7 6 5 4 3 3 3 3 2 1 1 1 1 1 0 0 0 0 0 1 1 1 2 2 3 5 6 6 6 4 3 3 3 4 5 5 4 3 4 4 5 4 3
6 6 6 5 4 3 3 2 1 0 0 0 0 0 0 0 0 1 1 1 1 1 2 3 4 5 6 6 5 4 3 2 2 3 4 5 4 3 3 4 4 3 2
6 6 6 6 5 3 2 1 0 0 0 0 0 0 0 0 0 1 1 0 0 1 1 2 3 4 5 4 3 2 2 1 1 1 2 3 3 2 2 2 2 1 1
4 5 6 6 5 2 1 0 0 0 0 0 0 0 0 0 0 1 1 0 0 0 0 1 1 2 2 2 1 1 1 0 0 0 1 1 1 1 1 1 1 1 0
Wind_Speed
4 4 3 3 3 3 3 3 3 2 3 3 3 3 3 2 3 3 2 2 2 2 1 1 1 1 1 1 1 1 2 2 2 3 2 1 2 3 2 3 3 3 4
4 3 3 3 3 3 3 3 3 3 2 3 3 3 3 3 3 3 3 3 3 3 2 2 2 1 1 1 1 1 2 2 3 3 2 1 2 3 3 3 3 4 3
3 3 2 2 3 3 3 3 3 3 3 3 3 3 3 3 3 3 3 3 3 3 3 3 2 2 1 1 1 1 2 2 2 3 2 1 1 1 1 2 3 2 4
3 3 3 3 3 4 3 3 3 3 3 3 3 3 3 3 2 2 2 3 3 2 3 3 3 3 3 2 2 2 2 1 1 2 1 1 1 1 1 1 2 2 3
3 3 3 3 2 2 2 3 3 3 3 3 3 3 2 2 2 2 2 3 2 2 2 2 3 3 3 3 2 2 2 2 2 2 2 1 1 1 2 2 2 2 2
3 3 3 2 2 2 2 2 2 2 2 2 3 3 3 3 3 4 3 3 3 3 3 2 2 2 3 3 3 3 4 4 3 3 2 3 3 3 2 2 2 1 2
3 3 3 3 2 2 2 2 3 2 2 2 3 3 3 4 5 5 5 3 3 3 3 3 2 2 2 2 2 3 3 5 6 5 5 5 4 4 4 3 3 3 4
3 3 2 2 3 2 2 3 3 2 3 3 3 3 3 5 6 6 5 4 3 4 4 4 4 3 2 2 1 1 2 3 4 4 5 6 5 5 5 5 5 3 2
3 4 3 3 3 3 3 4 3 2 2 3 3 3 4 5 6 7 5 3 3 4 4 4 4 4 5 4 3 2 3 4 4 5 6 6 6 6 4 2 2 2 2
4 4 5 5 5 4 4 3 3 3 3 3 3 4 4 5 6 7 6 3 3 3 3 3 5 6 6 6 4 3 3 4 3 3 3 4 4 5 6 5 5 3 2
2 3 3 4 5 5 4 3 3 3 3 3 4 4 4 5 6 7 7 4 4 4 3 3 4 6 7 7 5 4 6 4 2 2 3 3 2 2 3 4 5 4 4
1 2 3 3 3 3 3 3 3 3 3 4 3 3 3 3 4 6 8 8 6 5 5 4 4 6 7 6 5 5 6 3 2 2 2 3 3 3 3 3 5 5 5
1 2 2 2 2 2 3 3 2 3 3 3 3 3 3 2 3 6 8 8 8 5 4 5 5 6 5 4 6 6 4 2 2 3 4 4 4 4 2 2 3 3 3
2 2 2 2 2 2 2 3 3 3 3 3 3 4 3 3 3 3 3 4 5 5 3 3 3 4 4 4 3 3 3 3 4 4 4 4 3 2 2 2 2 2 1
2 2 2 2 2 2 2 3 4 4 4 4 4 4 4 4 6 6 4 4 4 4 2 1 1 1 1 2 2 3 2 2 3 4 4 3 3 3 3 2 2 2 2
1 2 2 2 2 2 2 3 4 4 4 5 6 5 5 6 5 6 7 7 6 5 4 2 3 3 4 4 4 3 3 4 4 4 4 4 4 4 3 2 2 2 3
2 2 2 2 2 2 2 2 3 4 4 5 6 7 7 6 6 6 6 5 4 6 3 3 4 4 4 4 4 4 4 5 4 4 4 4 4 4 3 3 3 2 3
2 3 2 2 2 2 2 2 2 3 3 3 4 5 6 6 6 6 4 2 1 3 3 4 4 4 4 4 4 4 4 4 4 4 4 4 4 4 4 4 4 4 4
2 2 2 2 2 2 2 2 2 3 3 3 3 3 4 4 3 4 3 3 4 4 4 4 4 4 4 4 4 4 4 4 4 4 4 4 4 3 4 4 4 5 4
2 3 2 2 2 2 2 2 2 2 2 2 3 3 2 1 1 1 2 3 3 4 4 4 4 4 4 4 3 3 3 4 4 4 4 4 3 3 4 5 4 4 4
1 2 3 2 2 1 2 2 2 2 3 3 3 3 2 2 2 3 3 3 4 4 4 4 3 3 3 3 3 3 3 3 3 3 3 3 3 3 4 4 4 4 4
1 1 1 2 2 2 2 2 2 2 3 3 3 2 3 2 2 2 3 4 4 4 3 3 2 2 2 3 3 3 3 3 3 3 3 3 3 3 3 3 3 3 3
1 1 1 2 2 2 2 2 2 2 2 2 2 2 1 2 2 3 3 3 2 2 2 2 2 2 2 2 2 2 3 3 3 3 3 3 3 3 3 4 5 4 4
2 2 2 2 2 1 1 2 2 2 2 2 2 2 1 1 2 2 2 2 1 1 1 1 1 1 2 1 1 1 1 2 2 2 3 3 4 3 3 4 4 5 5
1 1 1 1 1 1 1 2 2 2 2 2 2 1 2 2 1 1 1 1 1 1 1 1 1 0 1 2 1 1 1 2 2 2 2 2 3 4 4 4 4 4 4
1 1 1 1 1 1 1 1 2 2 2 2 2 2 2 2 2 2 1 1 1 1 1 1 1 1 1 1 2 1 1 2 2 3 2 2 3 3 3 3 4 4 4
Wind_Direction
190 195 196 199 197 188 188 195 194 195 183 184 191 188 184 177 171 163 171 177 183 217 235 192 212 198 210 244 203 182 178 161 188 252 249 227 199 219 205 207 214 211 218
195 192 195 198 191 189 197 200 186 181 190 189 185 184 192 188 178 175 187 185 185 205 223 196 210 197 216 236 200 200 202 189 174 213 248 220 217 215 204 210 216 217 218
183 184 189 190 195 203 206 199 189 182 186 188 182 184 190 191 187 187 190 193 198 208 204 199 214 189 220 245 226 213 220 215 177 179 224 225 231 212 183 231 232 232 226
185 189 194 201 206 204 197 190 190 188 186 192 194 189 188 191 194 193 191 192 196 205 209 207 208 196 206 221 232 223 210 198 184 180 213 232 236 237 163 207 248 246 244
178 187 209 210 200 185 186 194 198 200 201 197 190 186 186 189 198 190 192 190 196 212 227 222 221 208 205 207 210 209 196 193 193 195 215 226 233 200 212 208 219 246 265
175 194 202 197 192 188 187 187 194 204 206 184 186 188 201 220 206 184 176 188 193 201 218 232 233 213 218 215 215 211 198 196 203 202 207 212 227 221 210 201 187 188 269
184 192 191 191 190 193 193 184 197 203 203 205 205 201 217 230 214 201 196 189 195 201 206 216 232 233 216 223 240 247 246 233 210 198 204 216 214 213 195 200 202 209 230
188 194 199 206 204 192 184 199 209 206 205 212 214 217 224 235 220 211 205 204 211 213 213 211 212 226 230 202 217 274 279 271 246 219 214 222 220 212 199 199 203 219 262
199 198 200 203 208 207 210 214 217 213 222 222 218 219 227 242 226 215 199 202 217 229 225 217 209 211 221 193 183 227 275 288 284 257 237 232 224 213 193 159 170 177 257
220 207 200 194 200 213 219 216 221 212 220 220 233 233 230 239 235 223 203 196 213 235 244 233 219 216 217 196 189 199 239 262 280 304 280 262 243 231 208 192 191 196 221
241 211 206 205 207 210 207 211 219 223 228 231 236 244 241 240 235 223 206 198 207 213 223 235 238 229 222 215 207 210 231 238 248 253 268 270 264 246 229 212 201 196 207
271 212 212 219 230 225 202 211 216 215 225 237 238 246 249 245 234 225 216 215 209 205 218 227 235 231 226 225 226 237 240 236 238 253 268 266 259 254 244 226 216 214 217
288 256 233 223 222 214 201 209 219 223 228 238 232 238 253 254 246 237 231 227 223 220 224 227 239 237 228 233 240 241 232 216 219 240 250 254 248 246 245 244 238 223 230
280 274 256 239 239 241 227 215 212 220 235 240 234 237 245 249 248 240 238 236 235 239 240 237 238 243 237 242 253 247 230 219 218 232 247 256 257 250 238 229 228 217 228
287 286 293 271 245 247 249 240 234 228 224 227 237 236 233 242 243 233 224 226 219 218 186 176 224 227 237 257 263 259 246 237 238 244 244 252 250 244 249 237 219 210 216
307 302 282 268 265 251 262 288 284 267 265 246 240 239 248 248 247 237 233 229 216 179 159 193 216 218 222 231 239 247 242 240 240 239 238 239 239 236 244 240 217 209 223
232 259 276 269 261 253 249 255 284 312 305 271 257 251 247 254 253 247 239 228 210 169 179 213 221 223 227 230 232 235 239 240 236 232 234 237 239 237 233 229 223 225 232
240 241 253 264 266 262 257 256 256 264 283 291 280 261 252 253 256 253 233 171 197 199 215 221 228 230 230 232 234 237 245 247 240 238 237 236 234 234 233 230 224 226 231
247 249 251 257 268 270 273 275 271 266 265 278 297 299 275 262 258 256 197 196 218 226 229 232 235 237 239 238 237 238 241 245 245 239 239 237 235 233 236 234 230 232 230
261 283 281 265 264 283 293 293 289 282 280 277 283 290 310 13 292 264 219 231 238 240 241 240 242 242 240 240 240 242 247 250 249 245 242 236 231 229 234 232 227 228 231
272 292 308 310 292 267 263 265 266 268 270 273 272 273 248 232 236 239 230 230 237 244 245 243 241 243 241 237 235 235 237 246 245 245 244 238 230 233 238 231 226 227 231
258 271 285 292 293 287 284 269 269 274 276 278 287 285 236 240 243 242 243 241 235 237 235 232 242 244 244 240 232 233 239 249 254 253 249 245 241 239 235 232 232 232 229
243 257 276 284 281 285 288 286 281 282 285 289 290 293 269 254 261 264 261 260 253 243 236 225 226 240 246 244 237 225 227 239 246 246 246 251 255 248 236 234 235 234 231
247 253 260 275 283 280 292 297 297 303 307 312 314 318 310 293 287 283 277 280 277 261 256 254 236 230 266 275 264 254 254 264 262 247 241 240 244 245 236 235 236 234 231
248 264 267 267 269 274 294 304 309 319 324 316 312 317 316 309 301 298 301 302 316 322 314 307 309 29 2 332 313 288 280 291 295 289 269 249 249 250 241 239 239 241 236
230 251 267 280 285 284 284 298 309 317 320 319 314 306 299 299 297 291 293 298 312 322 326 331 340 355 347 331 317 312 293 285 294 293 281 262 255 262 263 256 247 246 244